[Iaude] MPEC E33: 2024 ES [a=0.91,e=0.19,i=9.1,H=25.3]

mpec at cfa.harvard.edu mpec at cfa.harvard.edu
Mon Mar 4 06:52:10 EST 2024


M.P.E.C. 2024-E33                                 Issued 2024 March 4, 11:50 UT

     The Minor Planet Electronic Circulars contain information on unusual
         minor planets, routine data on comets and natural satellites,
         and occasional editorial announcements.  They are published
    on behalf of Division F of the International Astronomical Union by the
          Minor Planet Center, Smithsonian Astrophysical Observatory,
                          Cambridge, MA 02138, U.S.A.
			  
             Prepared using the Tamkin Foundation Computer Network

                              MPC at CFA.HARVARD.EDU
            URL https://www.minorplanetcenter.net/    ISSN 1523-6714

                                    2024 ES                                     


Observations:
     K24E00S* C2024 03 02.36276011 23 59.419+13 54 21.63         20.69wXEE033F51
     K24E00S  C2024 03 02.38650011 23 46.227+13 53 23.77         20.75wXEE033F51
     K24E00S  C2024 03 02.39833211 23 39.631+13 52 54.64         20.73wXEE033F51
     K24E00S  C2024 03 02.51809111 22 32.529+13 47 53.60         20.39GVEE033F51
     K24E00S  C2024 03 02.51873311 22 32.164+13 47 51.93         20.45GVEE033F51
     K24E00S KC2024 03 03.19801611 16 42.34 +13 18 29.1          20.5 GVEE033H21
     K24E00S KC2024 03 03.20081511 16 40.79 +13 18 22.1          20.6 GVEE033H21
     K24E00S KC2024 03 03.20361511 16 39.24 +13 18 15.0          21.0 GVEE033H21
     K24E00S KC2024 03 03.20641311 16 37.71 +13 18 08.1          21.3 GVEE033H21
     K24E00S mC2024 03 03.26336511 16 08.454+13 15 51.41         20.12GVEE033I52
     K24E00S mC2024 03 03.26379411 16 08.224+13 15 49.82         20.85GVEE033I52
     K24E00S mC2024 03 03.26422911 16 08.000+13 15 48.96         21.55GVEE033I52
     K24E00S mC2024 03 03.26466411 16 07.781+13 15 47.63         20.76GVEE033I52
     K24E00S KB2024 03 04.01232011 09 37.88 +12 43 00.3          20.6 GXEE033I93
     K24E00S KB2024 03 04.02137911 09 32.93 +12 42 35.9          20.5 GXEE033I93
     K24E00S KB2024 03 04.02759711 09 29.53 +12 42 20.0          20.3 GXEE033I93

Observer details:
F51 Pan-STARRS 1, Haleakala.  Observers J. Herman, T. Lowe, P. Minguez, A.
    Schultz, I. Smith.  Measurers K. Chambers, T. de Boer, J. Fairlamb, H.
    Gao, M. Huber, C.-C. Lin, E. Magnier, Y. Ramanjooloo, R. Wainscoat, R.
    Weryk.  1.8-m Ritchey-Chretien + CCD.
H21 Astronomical Research Observatory, Westfield.  Observer R. Holmes.
    Measurers T. Linder, R. Holmes, L. Horn.  0.76-m f/3.0 astrograph + CCD.
I52 Steward Observatory, Mt. Lemmon Station.  Observers T. Beuden, J. K.
    Hogan.  Measurers T. Beuden, V. F. Carvajal, D. Fay, J. B. Fazekas, D. C.
    Fuls, A. R. Gibbs, A. D. Grauer, H. Groeller, J. K. Hogan, R. A. Kowalski,
    S. M. Larson, G. J. Leonard, D. Rankin, R. L. Seaman, F. C. Shelly, K. W.
    Wierzchos.  1.0-m prime focus + CCD.
I93 St Pardon de Conques.  Observer F. Losse.  0.40-m f/3.7 reflector + CCD.

Orbital elements:
2024 ES                                                  Earth MOID = 0.0891 AU
Epoch 2024 Mar. 31.0 TT = JDT 2460400.5                 Veres                   
M 192.31250              (2000.0)            P               Q                  
n   1.13024767     Peri.    8.97345     +0.99724707     +0.06518088             
a   0.9127538      Node   347.12919     -0.07397540     +0.84180753             
e   0.1934020      Incl.    9.13163     -0.00509191     +0.53582790             
P   0.87           H   25.36          G   0.15           U   7                  
Residuals in seconds of arc
240302 F51  0.3+  0.1-    240303 H21  0.1-  0.1+    240303 I52  0.7+  0.3-
240302 F51  0.1+  0.1-    240303 H21  0.2-  0.1+    240304 I93  0.0   0.2-
240302 F51  0.1+  0.2-    240303 H21  0.1-  0.3+    240304 I93  0.0   0.7-
240302 F51  0.1-  0.1-    240303 I52  0.0   0.1+    240304 I93  0.0   0.2-
240302 F51  0.2-  0.1-    240303 I52  0.1+  0.4-
240303 H21  0.1+  0.0     240303 I52  0.4+  0.1-

Ephemeris:
2024 ES                  a,e,i = 0.91, 0.19, 9                   q = 0.7362
Date    TT    R. A. (2000) Decl.     Delta      r    Elong.  Phase     V
2024 02 03    14 09 26.5 +22 41 19   0.1411  1.0388   108.4    64.2    23.5
...
2024 02 18    13 07 37.8 +20 20 02   0.1065  1.0661   134.9    41.0    22.2
...
2024 02 26    12 09 48.2 +17 13 03   0.09458 1.0764   155.1    22.7    21.5
...
2024 03 03    11 18 23.7 +13 27 44   0.09184 1.0822   171.3     7.9    20.9
2024 03 04    11 09 44.6 +12 44 25   0.09202 1.0830   173.2     6.2    20.8
2024 03 05    11 01 10.7 +12 00 04   0.09238 1.0838   174.1     5.4    20.8
...
2024 03 11    10 13 41.0 +07 27 43   0.09835 1.0873   161.8    16.6    21.4
...
2024 03 19    09 26 26.0 +02 08 05   0.1147  1.0892   142.9    33.4    22.2
...
2024 04 03    08 43 04.0 -04 17 56   0.1582  1.0846   118.7    54.0    23.5

M. P. C. Staff               (C) Copyright 2024 MPC           M.P.E.C. 2024-E33





More information about the Iaude mailing list